{"data":{"norad_id":41877,"intl_designator":"2016-074A","name":"RESOURCESAT-2A","alt_names":[],"object_type":"PAYLOAD","status":"ACTIVE","operator":null,"country":"IND","launch_date":"2016-12-07","launch_site_code":"SRILR","launch_vehicle":null,"mission":null,"orbit_class":"UNKNOWN","rcs_meters":4.155,"size_class":null,"mass_kg":null,"dimensions":null,"purposes":["earth_obs"],"wikipedia_slug":null,"has_3d_model":false,"image_url":null,"decayed_at":null,"tle_current":{"epoch":"2026-09-20T05:27:55.797696Z","epoch_age_seconds":41739,"freshness":"FRESH","line1":"1 41877U 16074A   26263.22772914 -.00000037  00000+0  31519-5 0  9992","line2":"2 41877  98.7451 335.9179 0002720 141.6249 218.5122 14.21613710507805","mean_motion":14.2161371,"eccentricity":0.000272,"inclination_deg":98.7451,"raan_deg":335.9179,"arg_perigee_deg":141.6249,"mean_anomaly_deg":218.5122,"bstar":3.1519e-6,"rev_number":50780,"period_min":101.29333938402,"perigee_km":817.9426504702,"apogee_km":821.85838287927,"semimajor_km":7198.0375166747,"source":"CELESTRAK","updated_at":"2026-09-20T09:00:33.969347Z"}}}